Regional Weather Roundup
Issued by NWS New Orleans/Baton Rouge, LA

Home | Current Version | Previous Version | Text Only | Print | Product List | Glossary Off
Versions: 1 2 3 4 5 6 7 8 9 10 11 12 13 14 15 16 17 18 19 20 21 22 23 24 25 26 27 28 29 30 31 32 33 34 35 36 37 38 39 40 41 42 43 44 45 46 47 48 49 50

915
ASUS44 KLIX 282205
RWRLIX
NEW ORLEANS REGIONAL WEATHER ROUNDUP
NATIONAL WEATHER SERVICE NEW ORLEANS LA
400 PM CST SUN DEC 28 2014

NOTE: "FAIR" INDICATES FEW OR NO CLOUDS BELOW 12,000 FEET WITH NO
      SIGNIFICANT WEATHER AND/OR OBSTRUCTIONS TO VISIBILITY.
      SKY/WX - SKY CONDITION AND SIGNIFICANT WEATHER.
      TMP - AIR TEMPERATURE.     DP    - DEWPOINT TEMPERATURE.
      RH  - RELATIVE HUMIDITY.   PRES  - PRESSURE.
      HI  - HEAT INDEX.          WCI   - WIND CHILL INDEX.

*  THESE STATIONS ARE NOT NWS OR FAA STATIONS AND ARE NOT UNDER
   NWS QUALITY CONTROL.

LAZ038-040-048-061>063-065>067-069-282300-
SOUTHEAST LOUISIANA

CITY           SKY/WX    TMP DP  RH WIND       PRES   REMARKS
N.O. AUDUBON     N/A     62  58  88 MISG        N/A
N.O. INTL ARPT CLOUDY    60  56  86 NW12      30.04S
N.O. LAKEFRONT CLOUDY    61  57  87 NW9       30.04S FOG
N.O. DOWNTOWN* CLOUDY    61  55  82 N7        30.05R
SLIDELL        CLOUDY    63  60  90 NW7       30.03S FOG
BATON ROUGE    CLOUDY    54  50  86 NW10      30.08S
BOOTHVILLE     FOG       66  66 100 SW5       30.03S VSB 1/4
BELLE CHASSE   CLOUDY    62  58  86 CALM      30.03S
BOGALUSA*        N/A     59  55  84 N6        30.08R
GALLIANO*      CLOUDY    65  63  93 MISG      30.04R FOG
NEW ROADS*     CLOUDY    50  48  93 NW3       30.10F
GONZALES*      CLOUDY    58  56  93 NW7       30.06R
HAMMOND*       NOT AVBL
HOUMA*         CLOUDY    63  61  94 N9        30.04R FOG
PORT FOURCHON* NOT AVBL

$$

MSZ070-080>082-282300-
SOUTHERN MISSISSIPPI

CITY           SKY/WX    TMP DP  RH WIND       PRES   REMARKS
MCCOMB         CLOUDY    53  49  86 N12       30.08R
GULFPORT       FOG       65  64  97 CALM      30.02R VSB 3/4
BILOXI         FOG       64  64 100 W2        30.02S VSB<1/4
PASCAGOULA     MOSUNNY   68  64  87 W8        30.02R
STENNIS ARPT*  CLOUDY    64  59  82 NW12      30.03R

$$

COASTAL OBSERVATIONS
LAKE AND NEARSHORE STATIONS

STATION/POSITION TIME  TEMP    WIND        PRES    WAVE
                       AIR SEA DIR/SP/G            HT/PER
                 (UTC) (F)     (DEG/KT/KT) (MB)    (FT/S)
PASCAGOULA       2200   64     170/  5/  6 1015.8
WAVELAND YACHT   2200   68     320/  7/  8 1015.8
GRAND ISLE       2200   65 64   40/  3/  5 1016.9
SOUTHWEST PASS   2200   80                 1016.9
NEW CANAL        2200   58 59  310/  3/  5 1017.5
SHELL BEACH      2200   60 61  300/ 12/ 14 1016.8

OFFSHORE STATIONS

STATION/POSITION TIME  TEMP    WIND        PRES    WAVE
                       AIR SEA DIR/SP/G            HT/PER
                 (UTC) (F)     (DEG/KT/KT) (MB)    (FT/S)
64 S DAUPHIN ISL 2200   71 74  120/  4/  4 1016.5    3/ 7

$$




USA.gov is the U.S. government's official web portal to all federal, state and local government web resources and services.